{"data":{"norad_id":57744,"epoch":"2026-05-25T04:05:08.104416Z","epoch_age_seconds":59926,"freshness":"FRESH","line1":"1 57744U 23131N   26145.17023269 -.00001225  00000+0 -34974-4 0  9997","line2":"2 57744  43.0068  86.0201 0001841 252.7040 107.3610 15.27573819151789","mean_motion":15.27573819,"eccentricity":0.0001841,"inclination_deg":43.0068,"raan_deg":86.0201,"arg_perigee_deg":252.704,"mean_anomaly_deg":107.361,"bstar":-3.4974e-5,"rev_number":15178,"period_min":94.267130143843,"perigee_km":481.80445647202,"apogee_km":484.3307520073,"semimajor_km":6861.2046042397,"source":"CELESTRAK","updated_at":"2026-05-25T13:38:18.401250Z"}}